Home > Weather > Downey > Past weeks

Flag for USA Past Weather in Downey, California, USA — Yesterday and Last 2 Weeks

Now
61 °F

Mostly cloudy.


Feels Like: 61 °F
Forecast: 57 / 68 °F
Wind: 6 mph from Southwest

Location: Long Beach Airport

Current Time: May 25, 2016 at 12:28:02 AM

Latest Report: May 24, 2016 at 11:53 PM


Visibility: 10 mi

Pressure: 30.05 "Hg

Humidity: 70%

Dew Point: 51 °F

Location of DowneyLocation

Past Weather in Downey — Graph

°F

Downey Temperature Yesterday

Maximum temperature yesterday: 71 °F (at 1:53 PM)
Minimum temperature yesterday: 58 °F (at 3:53 AM)
Average temperature yesterday: 64 °F

High & Low Weather Summary for the Past Weeks

 TemperatureHumidityPressure
High74 °F (May 11, 1:53 PM)93% (May 13, 2:53 AM)30.06 "Hg (May 13, 2:53 AM)
Low55 °F (May 22, 5:53 AM)38% (May 22, 5:53 PM)29.82 "Hg (May 19, 5:53 PM)
Average64 °F71%29.95 "Hg
* Reported May 9 10:53 PM — May 24 10:53 PM, Downey, Weather by CustomWeather, © 2016

Note: Actual official high and low records may vary slightly from our data, if they occured in-between our weather recording intervals... More about our weather records

Advertising

Downey Weather History for the Previous 24 Hours

Scroll right to see more
 ConditionsComfort  
Time TempWeatherWind HumidityBarometerVisibility
10:53 PM
Tue, May 24
61 °FPassing clouds.5 mph70%30.05 "Hg10 mi
9:53 PM61 °FPassing clouds.7 mph67%30.05 "Hg10 mi
8:53 PM62 °FPassing clouds.10 mph70%30.04 "Hg10 mi
7:53 PM62 °FPartly sunny.12 mph70%30.03 "Hg10 mi
6:53 PM65 °FScattered clouds.15 mph63%30.01 "Hg10 mi
5:53 PM68 °FScattered clouds.13 mph57%30.00 "Hg10 mi
4:53 PM69 °FPassing clouds.6 mph47%30.00 "Hg10 mi
3:53 PM71 °FSunny.10 mph44%29.99 "Hg10 mi
2:53 PM70 °FSunny.12 mph44%30.00 "Hg10 mi
1:53 PM71 °FSunny.5 mph44%30.00 "Hg10 mi
12:53 PM68 °FSunny.9 mph51%30.01 "Hg10 mi
11:53 AM68 °FScattered clouds.9 mph49%30.01 "Hg10 mi
10:53 AM67 °FSunny.7 mph49%30.00 "Hg10 mi
9:53 AM65 °FPartly sunny.8 mph56%29.99 "Hg10 mi
8:53 AM63 °FScattered clouds.5 mph63%29.98 "Hg10 mi
7:53 AM61 °FPartly sunny.5 mph70%29.96 "Hg10 mi
6:53 AM60 °FScattered clouds.3 mph75%29.95 "Hg10 mi
5:53 AM59 °FClear.No wind75%29.93 "Hg10 mi
4:53 AM60 °FPassing clouds.5 mph72%29.93 "Hg10 mi
3:53 AM58 °FPassing clouds.No wind81%29.92 "Hg10 mi
2:53 AM59 °FPassing clouds.3 mph78%29.92 "Hg10 mi
1:53 AM59 °FClear.No wind78%29.92 "Hg10 mi
12:53 AM59 °FClear.5 mph78%29.92 "Hg10 mi
Weather by CustomWeather, © 2016

See weather overviewHow to use our weather pages